Retour au catalogue

STARLINK-6166

ActifCommunicationsVLEO
NORAD 56383·PAYLOAD·🇺🇸 United States

Lancé May 4, 2023 depuis Cape Canaveral Space Force Station

Loading…

Prochains Passages (prochaines 24 heures)

TLE

FraisSource: CelesTrak SupGP

Époque: Sep 14, 2026, 22:02 UTC

1 56383C 23061K   26257.91854167 -.00004452  00000+0 -16129-3 0  2575
2 56383  42.9996 209.4209 0001066 252.8139 249.0875 15.27576641    15

Suivez STARLINK-6166 en temps réel avec AllMySat

Download on the App Store